EZS5839 LFSB-LIRF

Flight info

Callsign EZS5839
Flight time N/A
Altitude 37000
Route LFSB/25 ELBEG Y715 AMRUP N491 TRA N850 GERSA Z50 RESIA DCT PELEG DCT DIPVO DCT NIKMA/N0451F290 T369 RITEB
Aircraft A320/M-SDE3FGHIRWY/LB1

Departure

Time 2026-04-28 19:20
Airport EuroAirport Basel–Mulhouse–Freiburg (LFSB)

Arrival

Time N/A
Airport Rome–Fiumicino Leonardo da Vinci International Airport (LIRF)
Time Latitude Longitude Altitude Speed Heading
2026-04-28 19:03 47.59828 7.53156 891 ft 0 kts 65°
2026-04-28 19:09 47.59821 7.53135 891 ft 4 kts 58°
2026-04-28 19:09 47.59804 7.53105 891 ft 4 kts 32°
2026-04-28 19:10 47.59787 7.53095 891 ft 4 kts 312°
2026-04-28 19:10 47.59777 7.53078 889 ft 4 kts 220°
2026-04-28 19:10 47.59767 7.53073 891 ft 2 kts 188°
2026-04-28 19:10 47.59754 7.53114 889 ft 0 kts 154°
2026-04-28 19:13 47.59753 7.53114 889 ft 1 kts 154°
2026-04-28 19:13 47.59699 7.53130 889 ft 11 kts 195°
2026-04-28 19:14 47.59660 7.53045 886 ft 10 kts 246°
2026-04-28 19:14 47.59635 7.52962 886 ft 8 kts 246°
2026-04-28 19:14 47.59612 7.52896 886 ft 7 kts 242°
2026-04-28 19:14 47.59589 7.52832 887 ft 7 kts 238°
2026-04-28 19:15 47.59547 7.52826 887 ft 7 kts 163°
2026-04-28 19:15 47.59498 7.52860 887 ft 8 kts 153°
2026-04-28 19:15 47.59442 7.52899 887 ft 15 kts 155°
2026-04-28 19:15 47.59367 7.52950 887 ft 19 kts 155°
2026-04-28 19:16 47.59209 7.53067 889 ft 16 kts 145°
2026-04-28 19:16 47.59171 7.53216 889 ft 15 kts 125°
2026-04-28 19:16 47.59157 7.53361 889 ft 16 kts 77°
2026-04-28 19:16 47.59179 7.53511 888 ft 15 kts 78°
2026-04-28 19:17 47.59201 7.53664 886 ft 14 kts 76°
2026-04-28 19:17 47.59222 7.53786 885 ft 12 kts 77°
2026-04-28 19:17 47.59239 7.53889 885 ft 4 kts 76°
2026-04-28 19:17 47.59242 7.53906 885 ft 0 kts 77°
2026-04-28 19:19 47.59244 7.53928 885 ft 11 kts 84°
2026-04-28 19:19 47.59187 7.54056 880 ft 13 kts 163°
2026-04-28 19:19 47.59155 7.53984 881 ft 7 kts 257°
2026-04-28 19:20 47.59154 7.53980 881 ft 0 kts 257°
2026-04-28 19:20 47.59103 7.53635 883 ft 78 kts 256°
2026-04-28 19:20 47.58916 7.52465 889 ft 152 kts 257°
2026-04-28 19:20 47.58689 7.50890 1576 ft 148 kts 258°
2026-04-28 19:21 47.58466 7.49425 2355 ft 147 kts 256°
2026-04-28 19:21 47.58217 7.47841 2728 ft 168 kts 255°
2026-04-28 19:21 47.57933 7.46035 2843 ft 195 kts 255°
2026-04-28 19:21 47.57598 7.43943 3059 ft 222 kts 255°
2026-04-28 19:22 47.57219 7.41609 3423 ft 245 kts 256°
2026-04-28 19:22 47.57079 7.40763 3558 ft 253 kts 255°
2026-04-28 19:22 47.56356 7.36342 4702 ft 272 kts 255°
2026-04-28 19:22 47.56038 7.33571 5566 ft 276 kts 270°
2026-04-28 19:23 47.56431 7.30781 6394 ft 281 kts 295°
2026-04-28 19:23 47.57599 7.28477 7162 ft 284 kts 322°
2026-04-28 19:23 47.59340 7.27140 7963 ft 284 kts 348°
2026-04-28 19:23 47.61297 7.27038 8782 ft 284 kts 13°
2026-04-28 19:24 47.63093 7.28184 9611 ft 284 kts 38°
2026-04-28 19:24 47.64390 7.30384 10379 ft 286 kts 63°
2026-04-28 19:24 47.64990 7.33225 10965 ft 296 kts 80°
2026-04-28 19:24 47.65356 7.36320 11275 ft 316 kts 81°
2026-04-28 19:25 47.65729 7.39663 11455 ft 339 kts 81°
2026-04-28 19:25 47.66118 7.43191 11926 ft 351 kts 81°
2026-04-28 19:25 47.66515 7.46782 12565 ft 356 kts 81°
2026-04-28 19:25 47.66923 7.50441 13208 ft 362 kts 81°
2026-04-28 19:26 47.67337 7.54148 13863 ft 367 kts 81°
2026-04-28 19:26 47.67761 7.57905 14439 ft 371 kts 81°
2026-04-28 19:26 47.68188 7.61661 14980 ft 376 kts 81°
2026-04-28 19:26 47.68627 7.65512 15521 ft 382 kts 81°
2026-04-28 19:27 47.69081 7.69478 16104 ft 386 kts 81°
2026-04-28 19:27 47.69378 7.72086 16519 ft 388 kts 81°
2026-04-28 19:27 47.70274 7.77268 17254 ft 394 kts 69°
2026-04-28 19:27 47.71243 7.81098 17847 ft 398 kts 69°
2026-04-28 19:28 47.72220 7.84953 18412 ft 402 kts 69°
2026-04-28 19:28 47.73207 7.88856 18902 ft 406 kts 69°
2026-04-28 19:28 47.74198 7.92803 19389 ft 410 kts 69°
2026-04-28 19:28 47.74871 7.95492 19755 ft 412 kts 69°
2026-04-28 19:29 47.75872 7.99503 20269 ft 416 kts 70°